Watersmeet, MI

8:06 AM CST on February 20, 2017 (GMT -0600)
Kings Land O'Lakes

Weather History for KLNL - December, 2012

Change the Weather History Date:

Wednesday, December 19, 2012

  Actual Average (KEGV) Record (KEGV)
Temperature  
Mean Temperature 17 °F -  
Max Temperature 28 °F 26 °F 42 °F (2002)
Min Temperature 6 °F 10 °F -9 °F (1991)
Degree Days  
Heating Degree Days 48    
Moisture  
Dew Point 18 °F    
Average Humidity 91    
Maximum Humidity 100    
Minimum Humidity 85    
Precipitation  
Precipitation 0.00 in - - ()
Sea Level Pressure  
Sea Level Pressure 29.91 in    
Wind  
Wind Speed 1 mph (SSW)    
Max Wind Speed 8 mph    
Max Gust Speed -    
Visibility 7 miles    
Events      
Averages and records for this station are not official NWS values.
T = Trace of Precipitation, MM = Missing Value Source: NWS Daily Summary

Daily Weather History Graph

Daily Weather History Graph

Search for Another Location

Airport or City:

Trip Planner

Search our weather history database for the weather conditions in past years. The results will help you decide how hot, cold, wet, or windy it might be!

Date:

Astronomy

Dec. 19, 2012 Rise Set
Actual Time 7:35 AM CST 4:12 PM CST
Civil Twilight 7:00 AM CST 4:47 PM CST
Nautical Twilight 6:22 AM CST 5:25 PM CST
Astronomical Twilight 5:46 AM CST 6:02 PM CST
Moon 11:22 AM CST (12/19) No Moon Set
Length of Visible Light 9h 46m
Length of Day
8h 37m
Waxing Crescent, 45% of the Moon is Illuminated
Dec 19
Waxing Crescent
Dec 19
First Quarter
Dec 28
Full
Jan 4
Last Quarter
Jan 11
New

Hourly Weather History & Observations

Time (CST) Temp. Windchill Dew Point Humidity Pressure Visibility Wind Dir Wind Speed Gust Speed Precip Events Conditions
12:15 AM 14.0 °F - 12.2 °F 93% 29.77 in 10.0 mi Calm Calm - N/A   Scattered Clouds
12:35 AM 12.2 °F - 8.6 °F 85% 29.78 in 10.0 mi Calm Calm - N/A   Clear
12:55 AM 12.2 °F - 8.6 °F 85% 29.78 in 10.0 mi Calm Calm - N/A   Clear
1:15 AM 10.4 °F - 8.6 °F 92% 29.80 in 10.0 mi Calm Calm - N/A   Clear
1:35 AM 10.4 °F - 8.6 °F 92% 29.81 in 10.0 mi Calm Calm - N/A   Clear
2:15 AM 10.4 °F - 6.8 °F 85% 29.82 in 10.0 mi Calm Calm - N/A   Clear
2:35 AM 8.6 °F 2.0 °F 5.0 °F 85% 29.81 in 10.0 mi East 3.5 mph - N/A   Clear
2:55 AM 8.6 °F - 5.0 °F 85% 29.82 in 10.0 mi Calm Calm - N/A   Clear
3:15 AM 8.6 °F - 5.0 °F 85% 29.82 in 10.0 mi Calm Calm - N/A   Scattered Clouds
3:35 AM 8.6 °F - 6.8 °F 92% 29.82 in 10.0 mi Calm Calm - N/A   Scattered Clouds
3:55 AM 10.4 °F - 8.6 °F 92% 29.83 in 10.0 mi Calm Calm - N/A   Clear
4:15 AM 10.4 °F - 6.8 °F 85% 29.84 in 10.0 mi Calm Calm - N/A   Clear
4:35 AM 10.4 °F - 8.6 °F 92% 29.83 in 10.0 mi Calm Calm - N/A   Clear
4:55 AM 10.4 °F - 8.6 °F 92% 29.83 in 10.0 mi Calm Calm - N/A   Scattered Clouds
5:15 AM 10.4 °F - 8.6 °F 92% 29.83 in 10.0 mi Calm Calm - N/A   Mostly Cloudy
5:35 AM 10.4 °F - 6.8 °F 85% 29.84 in 10.0 mi Calm Calm - N/A   Scattered Clouds
5:55 AM 8.6 °F - 5.0 °F 85% 29.84 in 10.0 mi Calm Calm - N/A   Clear
6:15 AM 8.6 °F - 5.0 °F 85% 29.85 in 10.0 mi Calm Calm - N/A   Clear
6:35 AM 8.6 °F - 5.0 °F 85% 29.86 in 10.0 mi Calm Calm - N/A   Clear
6:55 AM 8.6 °F - 5.0 °F 85% 29.85 in 10.0 mi Calm Calm - N/A   Clear
7:15 AM 6.8 °F - 3.2 °F 85% 29.86 in 10.0 mi Calm Calm - N/A   Clear
7:35 AM 6.8 °F - 3.2 °F 85% 29.87 in 10.0 mi Calm Calm - N/A   Clear
8:15 AM 8.6 °F - 5.0 °F 85% 29.90 in 10.0 mi Calm Calm - N/A   Scattered Clouds
8:35 AM 14.0 °F 8.2 °F 12.2 °F 93% 29.91 in 10.0 mi SW 3.5 mph - N/A   Overcast
8:55 AM 17.6 °F - 15.8 °F 93% 29.91 in 10.0 mi Calm Calm - N/A   Overcast
9:15 AM 17.6 °F 12.3 °F 15.8 °F 93% 29.92 in 10.0 mi SSW 3.5 mph - N/A   Overcast
9:35 AM 19.4 °F 12.8 °F 17.6 °F 93% 29.92 in 10.0 mi SSW 4.6 mph - N/A   Overcast
9:55 AM 21.2 °F 14.9 °F 19.4 °F 93% 29.93 in 10.0 mi SSW 4.6 mph - N/A   Overcast
10:15 AM 21.2 °F - 19.4 °F 93% 29.92 in 7.0 mi Calm Calm - N/A   Overcast
10:35 AM 23.0 °F 18.4 °F 21.2 °F 93% 29.93 in 7.0 mi SSW 3.5 mph - N/A   Overcast
10:55 AM 23.0 °F 18.4 °F 21.2 °F 93% 29.93 in 5.0 mi SSW 3.5 mph - N/A   Overcast
11:15 AM 23.0 °F 17.0 °F 23.0 °F 100% 29.94 in 4.0 mi SW 4.6 mph - N/A   Overcast
11:35 AM 23.0 °F 17.0 °F 23.0 °F 100% 29.93 in 3.0 mi SW 4.6 mph - N/A   Overcast
11:55 AM 24.8 °F 19.1 °F 23.0 °F 93% 29.93 in 3.0 mi SSW 4.6 mph - N/A   Overcast
12:15 PM 24.8 °F 19.1 °F 23.0 °F 93% 29.94 in 3.0 mi SW 4.6 mph - N/A   Overcast
12:35 PM 26.6 °F 21.2 °F 23.0 °F 86% 29.94 in 3.0 mi SW 4.6 mph - N/A   Overcast
12:55 PM 26.6 °F 22.6 °F 24.8 °F 93% 29.94 in 2.5 mi SW 3.5 mph - N/A   Overcast
1:15 PM 26.6 °F 21.2 °F 24.8 °F 93% 29.94 in 2.5 mi SSW 4.6 mph - N/A   Overcast
1:35 PM 26.6 °F - 24.8 °F 93% 29.94 in 2.5 mi Calm Calm - N/A   Overcast
1:55 PM 26.6 °F 20.0 °F 26.6 °F 100% 29.94 in 2.5 mi SW 5.8 mph - N/A   Overcast
2:15 PM 26.6 °F 21.2 °F 26.6 °F 100% 29.93 in 4.0 mi WSW 4.6 mph - N/A   Overcast
2:35 PM 28.4 °F 23.3 °F 26.6 °F 93% 29.95 in 4.0 mi WSW 4.6 mph - N/A   Overcast
2:55 PM 28.4 °F 20.4 °F 26.6 °F 93% 29.96 in 4.0 mi WSW 8.1 mph - N/A   Overcast
3:15 PM 28.4 °F 22.2 °F 26.6 °F 93% 29.96 in 4.0 mi SW 5.8 mph - N/A   Overcast
3:35 PM 28.4 °F 24.6 °F 26.6 °F 93% 29.96 in 5.0 mi SW 3.5 mph - N/A   Overcast
3:55 PM 28.4 °F - 26.6 °F 93% 29.97 in 5.0 mi Calm Calm - N/A   Overcast
4:15 PM 28.4 °F 24.6 °F 26.6 °F 93% 29.97 in 7.0 mi SW 3.5 mph - N/A   Overcast
4:35 PM 28.4 °F 24.6 °F 26.6 °F 93% 29.98 in 7.0 mi SSW 3.5 mph - N/A   Overcast
5:15 PM 28.4 °F - 26.6 °F 93% 29.98 in 7.0 mi Calm Calm - N/A   Overcast
5:35 PM 28.4 °F 23.3 °F 26.6 °F 93% 29.99 in 7.0 mi SSW 4.6 mph - N/A   Overcast
5:55 PM 28.4 °F - 26.6 °F 93% 29.98 in 7.0 mi Calm Calm - N/A   Overcast
6:15 PM 28.4 °F 24.6 °F 24.8 °F 86% 29.96 in 7.0 mi SSW 3.5 mph - N/A   Overcast
6:35 PM 28.4 °F 24.6 °F 24.8 °F 86% 29.96 in 7.0 mi SSE 3.5 mph - N/A   Overcast
6:55 PM 26.6 °F 21.2 °F 24.8 °F 93% 29.96 in 7.0 mi South 4.6 mph - N/A   Overcast
7:15 PM 26.6 °F 21.2 °F 24.8 °F 93% 29.97 in 7.0 mi South 4.6 mph - N/A   Overcast
7:35 PM 26.6 °F 19.1 °F 24.8 °F 93% 29.98 in 7.0 mi South 6.9 mph - N/A   Overcast
7:55 PM 26.6 °F - 24.8 °F 93% 29.97 in 7.0 mi Calm Calm - N/A   Overcast
8:15 PM 26.6 °F 21.2 °F 24.8 °F 93% 29.97 in 7.0 mi SSW 4.6 mph - N/A   Overcast
8:35 PM 26.6 °F 22.6 °F 24.8 °F 93% 29.98 in 7.0 mi SSE 3.5 mph - N/A   Overcast
8:55 PM 26.6 °F 21.2 °F 24.8 °F 93% 29.98 in 7.0 mi South 4.6 mph - N/A   Overcast
9:15 PM 26.6 °F 22.6 °F 24.8 °F 93% 29.99 in 7.0 mi SSW 3.5 mph - N/A   Overcast
9:35 PM 26.6 °F 21.2 °F 24.8 °F 93% 29.98 in 7.0 mi South 4.6 mph - N/A   Overcast
9:55 PM 26.6 °F - 24.8 °F 93% 29.98 in 7.0 mi Calm Calm - N/A   Overcast
10:15 PM 26.6 °F - 24.8 °F 93% 29.99 in 7.0 mi Calm Calm - N/A   Overcast
10:35 PM 26.6 °F - 24.8 °F 93% 29.99 in 7.0 mi Calm Calm - N/A   Overcast
10:55 PM 26.6 °F - 24.8 °F 93% 29.98 in 7.0 mi Calm Calm - N/A   Overcast
11:15 PM 26.6 °F 22.6 °F 24.8 °F 93% 29.97 in 7.0 mi SSW 3.5 mph - N/A   Overcast
11:35 PM 26.6 °F - 24.8 °F 93% 29.96 in 7.0 mi Calm Calm - N/A   Overcast
11:55 PM 26.6 °F - 24.8 °F 93% 29.94 in 7.0 mi Calm Calm - N/A   Overcast